[[{"header":{"parameterUnit":"m.s-1","parameterCategory":1,"la1":30.2991,"la2":30.254,"lo1":-89.0895,"lo2":-89.0444,"dy":0.0017,"dx":0.0017,"nx":28,"ny":28,"refTime":"2023-10-04T21:00:00:Z","depth":0,"parameterNumber":2,"parameterNumberName":"U-component_of_WINDS"},"data":[0,0,0,0,0,0,0,0,0,0,0,0,0,0,0,0,0,0,0,0,0,0,0,0,0,0,0,0,0,0,0,0,0,0,0,0,0,0,0,0,0,0,0,0,0,0,0,0,0,0,0,0,0,0,0,0,0,0,1.5196,1.5195,0,1.5167,1.5166,1.5166,1.5154,1.5154,1.5154,1.5154,1.5127,1.5126,1.5125,0,0,0,0,0,0,0,0,0,0,0,0,0,1.5246,1.5245,1.5196,1.5195,1.5195,1.5167,1.5166,1.5166,1.5154,1.5154,1.5154,1.5154,1.5127,1.5126,1.5125,0,0,0,0,0,0,0,0,0,0,0,0,0,1.5221,1.5245,1.5196,1.5185,1.5184,1.5167,1.5166,1.5166,1.5154,1.5154,1.5154,1.5154,1.5127,1.5126,1.5125,1.5116,0,0,1.5122,1.5121,0,0,0,0,0,0,0,0,1.5223,1.5219,1.5187,1.5186,1.5185,1.5164,1.5174,1.5149,1.5154,1.5166,1.5154,1.5154,1.5139,1.5137,1.5132,1.5115,1.5114,1.5121,1.5121,1.512,1.512,0,0,0,0,0,0,0,1.5224,1.5221,1.5184,1.5187,1.5185,1.5184,1.5181,1.5169,1.5152,1.5165,1.5164,1.516,1.5139,1.5133,1.5131,1.5114,1.5122,1.512,1.512,1.5119,1.5093,1.5093,0,0,0,0,0,0,1.5227,1.5222,1.5185,1.5183,1.5204,1.5183,1.5179,1.5171,1.5152,1.515,1.516,1.516,1.5135,1.5132,1.513,1.5121,1.512,1.5119,1.5119,1.5093,1.5093,1.5093,0,0,0,0,0,0,1.5228,1.5224,1.5186,1.5203,1.5198,1.5182,1.5173,1.517,1.5164,1.5149,1.5146,1.5157,1.5135,1.5132,1.5121,1.512,1.5119,1.5118,1.5093,1.5093,1.5093,1.5101,0,0,0,0,0,0,1.523,1.5224,1.5219,1.5202,1.5197,1.5176,1.5172,1.5169,1.5162,1.5161,1.5145,1.5143,1.5135,1.5123,1.512,1.5118,1.5117,1.5093,1.5093,1.5093,1.5101,1.5101,1.5102,0,0,0,0,0,1.5232,1.5222,1.5219,1.5215,1.519,1.5176,1.5173,1.5162,1.5162,1.5158,1.5149,1.5143,1.5121,1.5121,1.5118,1.5116,1.5093,1.5093,1.5093,1.51,1.5101,1.5102,0,0,0,0,0,0,1.5238,1.5219,1.5216,1.52,1.519,1.5174,1.5167,1.5163,1.5152,1.5152,1.5141,1.5138,1.5129,1.5121,1.5123,1.5109,1.5107,1.5106,1.5113,1.5114,1.5114,1.5116,1.5116,0,0,0,0,0,1.5238,1.5227,1.5212,1.52,1.5195,1.5183,1.5176,1.5169,1.5158,1.5154,1.5144,1.5134,1.5126,1.5119,1.511,1.5101,1.5098,1.5098,1.5099,1.5099,1.5098,1.5096,1.5096,1.5093,1.5093,1.5093,0,0,1.5237,1.5226,1.5219,1.5201,1.5192,1.5183,1.5178,1.5168,1.5161,1.5152,1.5141,1.5135,1.5124,1.5114,1.511,1.5108,1.5099,1.5099,1.5099,1.5098,1.5096,1.5096,1.5097,1.5093,1.5093,1.5093,0,0,1.5231,1.5221,1.5211,1.5203,1.519,1.5182,1.518,1.5166,1.5161,1.515,1.5144,1.5138,1.5122,1.5115,1.511,1.5107,1.5102,1.5104,1.5106,1.5104,1.5105,1.5105,1.5105,1.5105,1.5104,1.5104,1.5104,0,1.5232,1.5216,1.5206,1.5197,1.5191,1.5183,1.5175,1.5168,1.5153,1.5149,1.5148,1.513,1.5122,1.5113,1.5112,1.5108,1.5107,1.5105,1.5105,1.5105,1.5105,1.5106,1.5106,1.5104,1.5104,1.5104,1.5104,0,1.5219,1.5208,1.5202,1.5189,1.5182,1.5173,1.5164,1.5159,1.5155,1.5148,1.514,1.5131,1.5121,1.5119,1.5114,1.511,1.5109,1.5107,1.5104,1.5106,1.5106,1.5106,1.5105,1.5105,1.5105,1.5105,0,0,1.5212,1.5196,1.5194,1.519,1.5177,1.517,1.5163,1.5153,1.515,1.5141,1.5136,1.5126,1.5124,1.5118,1.5114,1.5112,1.5113,1.511,1.511,1.5112,1.5111,1.5113,1.5113,1.5111,1.5111,1.5111,1.5112,0,1.5204,1.5189,1.5183,1.5172,1.5164,1.516,1.5154,1.5147,1.5143,1.5137,1.5132,1.5125,1.5123,1.512,1.5118,1.5113,1.5113,1.5113,1.5108,1.5108,1.511,1.5113,1.5114,1.5115,1.5112,1.5112,1.5112,0,1.5192,1.5184,1.5172,1.5165,1.5161,1.5156,1.5149,1.5143,1.5137,1.5134,1.513,1.5126,1.5121,1.5121,1.5116,1.5116,1.5114,1.5112,1.5112,1.5111,1.5109,1.5112,1.5115,1.5115,1.5112,1.5112,1.5112,0,1.519,1.5177,1.5169,1.5165,1.5155,1.5152,1.5148,1.5142,1.5138,1.5133,1.5131,1.5126,1.5123,1.512,1.5116,1.5116,1.5113,1.5111,1.5112,1.5112,1.511,1.511,1.5113,1.5109,1.5109,1.5109,1.5109,0,1.5181,1.5174,1.5168,1.5163,1.5157,1.5152,1.5146,1.5142,1.5138,1.5134,1.5131,1.5128,1.5123,1.512,1.5118,1.5115,1.5114,1.5113,1.5112,1.5113,1.5113,1.5111,1.511,1.5109,1.5109,1.5109,1.5109,0,1.5176,1.5171,1.5163,1.5156,1.5154,1.515,1.5145,1.5142,1.5139,1.5134,1.5133,1.5129,1.5126,1.5122,1.5118,1.5116,1.5115,1.5113,1.5116,1.5116,1.5117,1.5117,1.5118,1.5119,1.5115,1.5115,1.5115,0,1.517,1.5166,1.5159,1.5156,1.5153,1.5148,1.5145,1.5142,1.5139,1.5134,1.5132,1.5129,1.5126,1.5122,1.512,1.5118,1.5117,1.5118,1.5116,1.5118,1.5118,1.5118,1.5119,1.5117,1.5117,1.5117,1.5117,0,1.5162,1.5161,1.5156,1.5152,1.5148,1.5145,1.5141,1.5139,1.5136,1.5134,1.5131,1.5129,1.5126,1.5124,1.5122,1.512,1.5119,1.5118,1.5119,1.5119,1.5121,1.5121,1.5117,1.5118,1.5118,1.5118,1.5118,1.5118,1.5157,1.5154,1.515,1.5146,1.5143,1.5141,1.5138,1.5136,1.5134,1.513,1.513,1.5127,1.5126,1.5124,1.5123,1.5123,1.5122,1.5122,1.5122,1.5122,1.5123,1.5122,1.5123,1.5123,1.5123,1.5123,1.5123,0,1.5149,1.5147,1.5144,1.514,1.5138,1.5138,1.5135,1.5134,1.5131,1.513,1.5128,1.5127,1.5126,1.5126,1.5125,1.5126,1.5126,1.5126,1.5126,1.5126,1.5123,1.5123,1.5126,1.5126,1.5126,1.5126,1.5126,1.5126,1.5144,1.514,1.5139,1.5135,1.5134,1.5131,1.513,1.513,1.5129,1.5127,1.5127,1.5127,1.5127,1.5127,1.5128,1.5128,1.5128,1.5129,1.5129,1.5126,1.5126,1.5125,1.5125,1.5129,1.5129,1.5132,1.5132,1.5132]},{"header":{"parameterUnit":"m.s-1","parameterCategory":1,"la1":30.2991,"la2":30.254,"lo1":-89.0895,"lo2":-89.0444,"dy":0.0017,"dx":0.0017,"nx":28,"ny":28,"refTime":"2023-10-04T21:00:00:Z","depth":0,"parameterNumber":3,"parameterNumberName":"V-component_of_WINDS"},"data":[0,0,0,0,0,0,0,0,0,0,0,0,0,0,0,0,0,0,0,0,0,0,0,0,0,0,0,0,0,0,0,0,0,0,0,0,0,0,0,0,0,0,0,0,0,0,0,0,0,0,0,0,0,0,0,0,0,0,-2.0636,-2.0634,0,-2.0517,-2.0516,-2.0514,-2.0533,-2.0535,-2.0537,-2.0539,-2.0411,-2.0406,-2.0401,0,0,0,0,0,0,0,0,0,0,0,0,0,-2.0875,-2.0871,-2.0636,-2.0634,-2.0633,-2.0517,-2.0516,-2.0514,-2.0533,-2.0535,-2.0538,-2.054,-2.0413,-2.0406,-2.04,0,0,0,0,0,0,0,0,0,0,0,0,0,-2.0765,-2.0869,-2.0636,-2.0628,-2.0627,-2.0518,-2.0515,-2.0513,-2.0532,-2.0535,-2.0539,-2.0541,-2.0415,-2.0407,-2.0399,-2.0288,0,0,-2.0375,-2.0371,0,0,0,0,0,0,0,0,-2.0771,-2.0756,-2.0631,-2.0629,-2.0627,-2.0543,-2.0553,-2.0438,-2.0532,-2.0568,-2.0539,-2.0543,-2.0452,-2.0441,-2.0412,-2.0282,-2.0276,-2.0374,-2.0369,-2.0366,-2.0363,0,0,0,0,0,0,0,-2.0779,-2.0762,-2.0589,-2.0629,-2.0626,-2.063,-2.0618,-2.0531,-2.0494,-2.0565,-2.0566,-2.0552,-2.0451,-2.042,-2.0409,-2.0274,-2.0374,-2.0367,-2.0362,-2.0359,-2.0051,-2.0048,0,0,0,0,0,0,-2.079,-2.0768,-2.0592,-2.0585,-2.0708,-2.0623,-2.0609,-2.0567,-2.0495,-2.0487,-2.055,-2.0554,-2.0432,-2.0418,-2.0405,-2.0273,-2.0366,-2.0358,-2.0354,-2.0055,-2.0051,-2.0047,0,0,0,0,0,0,-2.0795,-2.0774,-2.0597,-2.0677,-2.0655,-2.0616,-2.0568,-2.0563,-2.0531,-2.0483,-2.0476,-2.0524,-2.0434,-2.0416,-2.0318,-2.0269,-2.0355,-2.0347,-2.0059,-2.0053,-2.0049,-2.0007,0,0,0,0,0,0,-2.0801,-2.0775,-2.0733,-2.0676,-2.065,-2.0514,-2.0564,-2.0558,-2.0518,-2.0522,-2.0458,-2.045,-2.0435,-2.033,-2.031,-2.0259,-2.0341,-2.0063,-2.0056,-2.005,-2.0012,-2.0001,-1.9991,0,0,0,0,0,-2.081,-2.0724,-2.0731,-2.071,-2.0597,-2.0511,-2.0496,-2.0482,-2.0514,-2.0471,-2.0441,-2.0452,-2.0277,-2.032,-2.0298,-2.0243,-2.0066,-2.0058,-2.0051,-2.0017,-2.0003,-1.9991,0,0,0,0,0,0,-2.0773,-2.0716,-2.0723,-2.0616,-2.0569,-2.0514,-2.046,-2.0467,-2.0407,-2.0413,-2.0396,-2.0382,-2.0284,-2.0253,-2.0302,-2.0134,-2.0176,-2.0163,-2.0158,-2.0144,-2.0133,-2.0143,-2.0334,0,0,0,0,0,-2.0753,-2.069,-2.0642,-2.0552,-2.0528,-2.0498,-2.046,-2.0454,-2.0403,-2.0382,-2.0344,-2.0293,-2.0227,-2.0183,-2.0119,-2.0008,-1.9995,-1.9959,-1.9949,-1.994,-1.993,-1.9872,-1.9857,-2.0022,-2.0022,-2.0022,0,0,-2.071,-2.0671,-2.0631,-2.0544,-2.0506,-2.044,-2.0481,-2.0408,-2.0359,-2.037,-2.0278,-2.0248,-2.019,-2.0086,-2.0038,-2.0057,-1.9882,-1.9931,-1.9924,-1.9919,-1.9863,-1.9847,-1.9834,-2.0017,-2.0018,-2.0019,0,0,-2.0599,-2.0562,-2.0485,-2.0448,-2.0392,-2.0373,-2.0354,-2.0299,-2.0282,-2.0189,-2.0197,-2.0137,-2.0023,-1.9982,-1.9946,-1.9824,-1.9833,-1.9803,-1.9747,-1.9691,-1.9678,-1.9667,-1.9626,-1.9611,-1.9793,-1.9793,-1.9793,0,-2.0552,-2.0454,-2.0444,-2.0372,-2.0334,-2.0345,-2.0267,-2.023,-2.0155,-2.0128,-2.0152,-2.0012,-1.9972,-1.9861,-1.9832,-1.9801,-1.9781,-1.9811,-1.9681,-1.967,-1.9659,-1.9619,-1.9604,-1.979,-1.979,-1.979,-1.9791,0,-2.0401,-2.0333,-2.0278,-2.0209,-2.0165,-2.009,-2.0068,-2.0024,-2.0023,-2.0001,-1.9908,-1.9862,-1.9791,-1.9764,-1.9759,-1.9652,-1.9667,-1.9686,-1.9728,-1.964,-1.9603,-1.9588,-1.9786,-1.9787,-1.9787,-1.9788,0,0,-2.0262,-2.0192,-2.0172,-2.0142,-2.0083,-2.003,-1.9956,-1.989,-1.9854,-1.9801,-1.974,-1.9645,-1.9664,-1.9624,-1.9615,-1.9565,-1.9475,-1.9591,-1.9589,-1.9573,-1.9358,-1.9346,-1.9329,-1.9481,-1.9478,-1.9475,-1.9364,0,-2.0147,-2.002,-2.001,-1.9895,-1.9834,-1.9844,-1.9781,-1.9737,-1.9715,-1.966,-1.9635,-1.9569,-1.9597,-1.9574,-1.9525,-1.9497,-1.9432,-1.9504,-1.9424,-1.9421,-1.9441,-1.9309,-1.9294,-1.9192,-1.9349,-1.9346,-1.9345,0,-1.9996,-1.9944,-1.9824,-1.9778,-1.9751,-1.9694,-1.9635,-1.9581,-1.9532,-1.952,-1.9477,-1.9477,-1.9401,-1.9446,-1.9342,-1.9392,-1.9358,-1.9339,-1.9335,-1.9328,-1.9379,-1.9301,-1.9158,-1.9144,-1.9321,-1.9323,-1.9325,0,-1.9911,-1.981,-1.9727,-1.9701,-1.9643,-1.9603,-1.9577,-1.9531,-1.9493,-1.944,-1.9416,-1.9353,-1.932,-1.9271,-1.9254,-1.9287,-1.9152,-1.9194,-1.9141,-1.9141,-1.9113,-1.9115,-1.8965,-1.9087,-1.9087,-1.9088,-1.9088,0,-1.9785,-1.9712,-1.9689,-1.9637,-1.9556,-1.9545,-1.9465,-1.944,-1.94,-1.9345,-1.9348,-1.9295,-1.9275,-1.9218,-1.9203,-1.9122,-1.9105,-1.9094,-1.9092,-1.9095,-1.9097,-1.9074,-1.9082,-1.9084,-1.9084,-1.9085,-1.9086,0,-1.9676,-1.9657,-1.9567,-1.9522,-1.9508,-1.9451,-1.9411,-1.9362,-1.9343,-1.9272,-1.9255,-1.9224,-1.9158,-1.9136,-1.9055,-1.9046,-1.8951,-1.8953,-1.8969,-1.8969,-1.8918,-1.8924,-1.875,-1.8728,-1.8862,-1.8861,-1.886,0,-1.9598,-1.9543,-1.9492,-1.9457,-1.943,-1.9371,-1.9334,-1.9321,-1.9282,-1.9225,-1.9183,-1.9118,-1.9067,-1.8961,-1.893,-1.8869,-1.8872,-1.8815,-1.8862,-1.8869,-1.8874,-1.8879,-1.8874,-1.8806,-1.8805,-1.8804,-1.8803,0,-1.9462,-1.9457,-1.9404,-1.9349,-1.9305,-1.926,-1.9216,-1.9186,-1.9167,-1.9123,-1.9058,-1.9018,-1.8938,-1.8875,-1.8814,-1.8785,-1.8791,-1.8788,-1.8773,-1.8777,-1.879,-1.8786,-1.8947,-1.8792,-1.8794,-1.8794,-1.8795,-1.8795,-1.9368,-1.9321,-1.928,-1.9222,-1.9189,-1.9149,-1.9102,-1.9079,-1.9025,-1.8961,-1.8956,-1.8886,-1.8841,-1.876,-1.8729,-1.8674,-1.869,-1.8667,-1.8662,-1.8657,-1.8655,-1.8798,-1.8662,-1.8663,-1.8663,-1.8663,-1.8663,0,-1.9236,-1.9211,-1.9157,-1.9099,-1.9054,-1.9066,-1.9019,-1.898,-1.892,-1.8878,-1.8829,-1.8755,-1.8695,-1.8661,-1.8601,-1.8563,-1.8565,-1.8548,-1.8552,-1.8546,-1.8643,-1.8663,-1.8548,-1.8548,-1.8548,-1.8548,-1.8548,-1.8548,-1.9162,-1.9084,-1.9074,-1.8981,-1.8956,-1.889,-1.8863,-1.8827,-1.8794,-1.8714,-1.8665,-1.8644,-1.8606,-1.8544,-1.8489,-1.8481,-1.8459,-1.8441,-1.8435,-1.8526,-1.8538,-1.855,-1.8569,-1.8436,-1.8436,-1.8343,-1.8342,-1.8341]}]]